Regional Weather Roundup
Issued by NWS

Home | Current Version | Previous Version | Text Only | Print | Product List | Glossary Off
Versions: 1 2 3 4 5 6 7 8 9 10 11 12 13 14 15 16 17 18 19 20 21 22 23 24 25 26 27 28 29 30 31 32 33 34 35 36 37 38 39 40 41 42 43 44 45 46 47 48 49 50

000
ASUS45 KBOI 292310
RWRID

IDAHO REGIONAL WEATHER ROUNDUP
NATIONAL WEATHER SERVICE BOISE ID
500 PM MDT FRI JUL 29 2016

NOTE: "FAIR" INDICATES FEW OR NO CLOUDS BELOW 12000 FEET
WITH NO SIGNIFICANT WEATHER AND/OR OBSTRUCTIONS TO VISIBILITY

IDZ012-014-300000-
SOUTHWEST IDAHO


CITY           SKY/WX    TMP DP  RH WIND       PRES   REMARKS
BOISE          SUNNY     99  38  12 N16G22    29.87F HX  94
CALDWELL       SUNNY     99  51  19 NW9       29.84F HX  96
MOUNTAIN HOME  SUNNY    101  38  11 N13G23    29.85F HX  96
$$

IDZ016-017-300000-
SOUTHCENTRAL IDAHO


CITY           SKY/WX    TMP DP  RH WIND       PRES   REMARKS
BURLEY         SUNNY     90  47  22 W8        29.96F
JEROME         SUNNY     95  45  17 W10       29.96F HX  91
TWIN FALLS     SUNNY     96  35  11 NW8       29.97F HX  91
$$

IDZ019>023-300000-
SOUTHEAST IDAHO


CITY           SKY/WX    TMP DP  RH WIND       PRES   REMARKS
IDAHO FALLS    SUNNY     91  35  13 S7        30.01F
POCATELLO      SUNNY     95  35  12 S9        29.98F HX  90
REXBURG        SUNNY     89  34  14 SW7       30.01F
$$

IDZ006-010-011-018-031-032-300000-
CENTRAL IDAHO MOUNTAINS


CITY           SKY/WX    TMP DP  RH WIND       PRES   REMARKS
MCCALL         SUNNY     88  36  15 VRB7      30.06F
HAILEY         SUNNY     91  36  14 W12       30.03F
STANLEY          N/A     87  17   7 W8        30.15F
SALMON         SUNNY     91  39  16 CALM      29.91F
CHALLIS        SUNNY     93  31  11 E6        29.98F
$$

IDZ002-004-006-007-026-300000-
NORTHERN IDAHO


CITY           SKY/WX    TMP DP  RH WIND       PRES   REMARKS
LEWISTON       SUNNY    101  38  11 W5        29.81F HX  95
LOWELL           N/A     96  54  24 CALM      29.80F HX  94
COEUR D`ALENE  SUNNY     93  48  21 CALM      29.85F HX  90
MULLAN PASS    SUNNY     78  43  28 MISG      30.16F
$$



USA.gov is the U.S. government's official web portal to all federal, state and local government web resources and services.